Theta_e
327 328 329 328 329 329 329 327 333 335 331 335 335 333 329 325 324 324 322 318 319 318 316 318 316 317 316 316 316 314 315 320 320 319 319 314 308 309 308 307 308 307 307 307 307 306 304 303 301 300 299 298 298 298 298 297 297 296 296 296 296 300 303 302 304 306 306 306 307 305 301 298 298 296 295 295 295 295 295 295 295 295 295 295 296 300 305 307 307 307 307 307 307 306 306 306 306
328 329 328 328 328 328 329 326 335 336 331 334 333 332 327 320 320 322 322 320 319 317 315 315 315 315 315 314 312 312 313 313 315 315 313 309 308 309 307 306 306 306 307 307 308 306 304 303 301 300 299 298 298 298 298 297 297 296 296 296 295 297 298 299 302 304 304 304 304 302 297 295 295 294 295 295 295 295 295 295 295 294 295 294 296 302 306 306 306 306 305 305 305 304 303 303 303
328 329 327 327 326 326 328 326 335 336 332 335 335 333 324 320 322 321 320 317 316 315 315 314 314 314 313 314 311 313 315 311 311 310 308 308 308 307 306 306 306 306 306 307 307 305 304 302 301 300 299 298 298 298 298 298 297 297 296 296 295 295 295 296 299 301 300 300 300 297 294 294 294 294 295 294 295 295 295 295 294 294 294 293 298 304 305 305 305 304 303 302 301 299 298 299 299
328 328 326 326 325 327 328 329 335 334 332 333 335 332 324 324 324 319 316 313 314 314 313 312 312 312 311 313 312 313 313 311 310 309 308 308 308 307 307 306 306 306 306 307 307 304 304 302 301 300 299 298 298 298 297 298 297 297 297 296 295 295 295 295 297 297 297 297 296 294 293 294 294 294 294 295 295 294 294 294 294 294 294 293 297 302 303 303 304 302 300 297 296 295 295 296 297
328 326 325 325 326 328 328 331 335 332 331 331 331 330 324 323 321 317 313 311 313 312 312 312 312 311 311 312 313 314 313 312 311 310 310 309 309 309 307 307 306 306 307 308 306 305 304 303 302 301 300 298 298 298 298 298 298 297 297 296 296 295 295 295 295 295 294 294 293 293 293 293 294 294 294 294 294 294 294 294 294 294 294 293 294 297 299 300 300 298 294 293 293 292 293 293 294
326 325 324 323 324 325 326 329 333 333 331 327 327 326 321 318 316 313 310 310 311 311 311 312 313 311 310 311 312 314 312 312 311 311 311 309 310 309 308 307 307 307 307 308 307 305 305 304 302 302 300 299 298 298 298 298 298 297 297 296 296 295 295 295 294 294 293 293 293 293 293 293 294 294 294 294 294 294 294 294 294 293 293 293 292 293 295 295 293 293 291 292 292 292 292 291 292
322 323 323 324 325 323 327 330 331 333 329 322 323 324 320 315 311 311 311 312 311 311 312 313 312 310 311 310 312 314 312 312 311 311 310 310 309 309 308 307 307 307 307 308 307 306 305 304 303 303 302 300 299 298 298 298 298 297 297 297 296 295 295 294 294 293 293 293 293 293 293 293 294 294 294 294 294 294 294 293 293 293 293 292 292 292 292 292 291 291 291 291 291 291 292 291 292
320 321 321 325 328 325 328 330 329 330 326 319 320 322 318 312 310 312 314 314 313 312 312 313 312 312 314 311 312 313 312 313 311 311 309 309 309 308 307 307 307 308 308 308 308 306 305 305 304 304 304 303 301 300 299 298 298 298 297 297 296 295 295 294 294 293 293 293 293 293 293 293 293 293 294 294 294 294 293 293 293 293 292 292 292 292 291 291 291 291 291 291 291 291 291 291 291
318 320 321 323 327 327 327 328 327 326 324 320 319 318 314 311 310 313 315 313 312 312 312 313 313 313 315 312 312 312 311 313 312 312 310 309 308 308 308 307 307 308 308 308 308 307 306 305 305 305 306 305 304 302 300 299 298 297 297 297 296 296 295 295 294 294 293 293 293 293 293 293 293 293 293 293 294 294 293 293 293 293 292 292 291 291 291 291 291 291 290 290 290 290 290 290 290
317 320 322 323 325 325 326 326 326 324 321 319 319 317 313 312 311 312 314 314 311 311 312 312 313 313 314 313 312 311 311 312 312 312 311 309 308 308 308 307 307 307 308 308 308 307 306 305 306 307 307 307 306 305 304 301 299 298 297 297 296 296 295 295 294 294 293 293 293 293 293 293 293 293 293 293 293 293 293 293 293 292 292 292 291 291 291 291 290 290 290 290 290 290 290 290 290
317 320 320 322 325 324 327 326 325 324 318 318 318 315 314 313 312 312 312 314 311 310 311 311 313 312 312 312 312 312 311 311 312 311 311 309 308 308 307 307 307 307 307 307 308 307 306 306 307 307 307 307 307 306 306 304 302 300 298 297 297 296 296 295 295 294 294 294 293 293 293 293 293 293 293 293 293 293 293 293 292 292 292 291 291 291 291 290 290 290 290 290 290 290 290 290 290
318 322 320 322 326 326 326 323 325 323 316 317 318 315 315 313 314 314 313 313 311 310 311 310 311 311 311 311 311 313 312 311 312 312 311 309 308 307 307 307 307 307 307 307 307 307 307 307 307 307 307 307 307 306 306 306 304 303 300 299 297 297 296 296 296 295 295 294 294 293 293 293 293 293 293 293 293 293 293 293 292 292 292 291 291 291 290 290 290 290 290 290 290 290 290 289 289
316 319 317 321 327 324 321 321 324 323 318 319 318 316 315 313 314 315 312 312 311 311 312 310 311 311 311 311 311 312 312 312 313 312 312 310 308 307 307 307 307 307 307 307 307 307 307 307 308 307 307 307 307 306 306 306 305 305 304 302 300 298 297 296 296 296 295 295 294 294 293 293 293 292 293 293 293 293 293 292 292 292 291 291 291 290 290 290 290 290 290 289 289 289 289 289 289
313 315 315 319 324 319 318 320 321 323 324 320 315 316 315 314 314 314 312 313 312 312 313 311 311 311 311 311 311 312 311 312 312 312 312 311 309 307 308 307 307 307 307 307 307 307 307 307 308 307 307 307 307 307 306 306 305 305 305 304 302 301 299 297 296 296 296 295 295 294 294 293 293 292 292 292 292 292 293 292 292 292 291 291 290 290 290 290 290 289 289 289 289 289 289 288 288
311 313 315 317 319 317 319 319 318 322 324 318 314 315 314 313 314 314 313 313 313 312 313 312 311 312 312 312 311 312 312 312 311 311 311 310 309 308 307 307 307 307 307 307 307 307 307 307 307 307 307 307 307 306 306 306 306 305 305 305 304 303 301 299 297 296 296 296 295 295 294 293 293 292 292 292 292 292 292 292 292 291 291 290 290 290 290 290 289 289 289 289 289 288 288 288 288
310 313 317 318 319 319 320 319 317 320 320 315 314 314 313 312 312 314 313 313 313 313 314 312 312 312 311 311 310 311 311 312 311 310 310 309 309 308 307 307 307 307 307 307 307 307 307 307 307 307 307 306 306 306 306 306 306 306 305 305 305 304 303 301 299 297 297 296 296 295 294 294 293 292 292 292 292 292 292 292 291 291 291 290 290 290 290 289 289 289 288 288 288 288 288 288 288
309 314 319 320 322 319 318 317 315 317 319 314 312 312 312 312 311 312 312 312 313 312 313 313 313 313 312 310 310 310 310 311 311 309 309 308 308 307 307 307 307 306 306 306 306 307 306 307 307 307 307 306 306 306 306 306 306 306 305 305 305 305 304 303 301 300 298 296 296 295 295 294 293 292 292 292 292 292 292 291 291 291 290 290 290 290 289 289 288 288 288 288 288 288 288 288 288
311 317 318 319 323 318 315 313 312 314 318 315 311 311 312 312 312 311 312 312 312 312 312 313 313 313 313 311 310 310 310 311 311 309 309 308 308 308 307 307 307 307 306 306 306 306 306 307 307 307 307 306 306 306 306 306 305 305 305 305 305 305 304 304 302 301 300 298 296 295 295 294 293 292 292 292 292 291 291 291 291 290 290 290 289 289 289 288 288 288 288 288 288 288 288 288 288
313 317 317 322 322 314 311 311 311 311 314 314 311 311 311 311 311 310 312 311 310 312 312 312 312 312 312 312 311 310 310 310 310 310 309 309 308 308 308 307 307 307 306 306 306 306 306 306 306 307 306 306 306 306 306 305 305 305 305 305 305 305 304 304 304 303 302 299 297 295 295 294 293 292 292 292 291 291 291 291 291 290 290 289 289 289 289 288 288 288 288 288 288 288 288 288 288
314 313 317 324 318 310 310 310 311 310 311 312 311 312 310 311 311 311 311 311 311 311 310 310 311 312 312 312 311 310 309 309 309 309 309 309 309 308 308 307 307 307 307 306 306 306 306 306 306 306 306 306 306 306 305 305 305 305 305 305 305 304 304 304 304 304 303 301 298 296 295 294 293 292 292 291 291 291 291 291 290 290 290 289 289 289 288 288 288 288 288 288 288 288 288 288 287
313 313 319 321 312 310 311 309 311 309 309 311 311 312 310 310 311 311 310 311 312 310 309 309 310 311 311 311 311 310 309 309 309 309 309 309 309 308 308 307 307 307 307 307 306 306 306 306 306 306 306 306 306 306 305 305 305 305 305 305 305 304 304 304 305 304 304 303 300 296 295 294 293 292 291 291 291 291 290 290 290 290 289 289 289 288 288 288 288 288 288 288 288 288 287 287 287
313 314 315 313 310 311 311 309 310 309 309 310 311 312 311 311 311 311 311 312 313 310 309 310 310 310 310 310 311 311 310 310 310 309 309 309 309 309 308 308 307 307 307 307 307 307 306 306 306 306 306 306 306 306 305 305 305 305 305 305 305 304 304 304 304 304 304 304 301 297 295 294 293 292 292 291 291 291 290 290 290 290 289 289 288 288 288 288 288 288 287 287 287 287 287 287 286
313 314 311 309 310 310 309 309 309 308 309 310 311 311 311 310 311 311 310 311 311 310 311 312 311 312 311 311 310 311 311 311 310 310 310 310 310 309 309 308 307 307 307 307 307 307 307 307 307 307 307 307 306 306 305 305 305 305 305 305 304 304 304 304 304 304 304 304 302 299 296 294 293 292 292 291 291 290 290 290 290 290 289 289 288 288 288 288 287 287 287 287 287 287 287 286 286
313 317 312 309 310 309 309 309 308 309 309 310 310 310 310 311 312 311 310 311 311 311 311 311 312 312 312 312 311 311 311 311 311 311 311 310 310 310 310 309 308 307 307 307 307 307 307 307 307 307 307 307 306 306 305 305 305 305 305 305 304 304 304 304 304 304 304 304 303 300 297 294 293 292 291 291 290 290 290 290 290 289 289 288 288 288 288 287 287 287 287 287 287 286 286 286 286
317 318 312 309 309 309 310 309 309 309 309 310 310 309 310 311 311 310 310 311 311 311 311 311 311 311 311 311 312 312 312 311 311 311 311 310 310 310 310 310 309 308 307 307 307 307 308 307 307 307 307 307 307 306 306 305 305 305 305 305 304 304 304 304 304 304 304 304 303 301 297 294 293 292 291 290 290 290 290 290 289 289 289 288 288 288 287 287 287 287 287 286 286 286 286 286 285
316 314 312 310 310 309 309 309 309 309 309 309 309 309 309 309 310 309 309 310 310 310 310 310 310 310 311 310 311 312 312 312 311 311 311 311 310 310 310 310 309 309 308 307 307 307 308 307 308 308 307 307 307 306 306 305 305 304 304 304 304 304 304 303 303 304 304 303 303 300 297 294 292 291 291 290 290 290 289 289 289 289 288 288 288 287 287 287 287 287 286 286 286 286 285 285 283
313 311 311 310 310 310 309 309 309 310 309 309 309 310 309 308 309 310 310 310 310 310 310 310 310 310 310 311 311 311 311 311 311 311 311 311 310 310 310 310 309 309 309 308 308 308 308 308 308 308 308 308 307 307 306 305 305 305 304 304 304 304 303 303 303 303 303 303 302 300 297 294 292 291 291 290 290 289 289 289 289 288 288 288 287 287 287 287 287 286 286 285 285 285 284 283 282
311 310 312 313 311 309 309 308 309 309 309 309 309 310 308 308 309 309 310 311 310 310 311 311 311 311 310 310 311 310 310 310 310 310 310 310 310 309 309 309 309 309 309 309 309 309 309 308 308 309 308 308 308 308 307 306 305 305 304 304 304 303 303 303 303 303 303 302 302 300 297 294 293 291 290 290 289 289 289 289 288 288 288 288 287 287 287 287 286 286 285 285 285 284 283 282 281
311 310 314 320 316 312 311 308 309 309 310 310 309 310 311 310 310 310 310 311 310 309 310 311 311 311 311 310 310 310 310 310 310 310 310 310 310 310 309 309 309 309 310 310 310 309 309 309 309 309 309 309 308 308 307 306 305 305 304 304 304 303 303 303 303 303 302 302 301 299 297 295 293 291 290 289 289 289 289 288 288 288 288 287 287 287 287 286 286 286 285 285 284 283 282 281 281
313 311 313 319 319 322 315 308 310 309 309 309 309 312 315 312 310 310 311 311 310 309 309 310 311 311 311 311 311 310 310 310 310 310 310 310 310 310 310 310 309 309 310 310 310 310 309 309 309 309 309 309 309 308 307 306 305 305 304 304 303 303 302 302 303 302 302 301 300 299 297 295 293 291 290 289 289 288 288 288 288 288 287 287 287 286 286 286 286 285 285 284 284 282 281 281 280
315 316 316 314 316 328 320 307 309 310 309 309 309 313 313 312 310 309 311 312 311 310 310 311 310 311 311 311 311 311 311 310 310 310 310 310 310 310 310 310 310 310 310 310 310 310 310 310 310 310 309 309 309 308 307 306 306 305 304 303 303 302 302 302 302 302 302 301 300 298 296 295 293 291 290 289 288 288 288 288 287 287 287 287 287 286 286 286 285 285 285 284 283 282 281 280 280
315 316 323 322 315 323 320 309 309 310 311 308 309 314 314 311 310 310 311 311 311 310 310 311 311 311 311 311 311 311 311 311 311 311 311 311 311 311 310 310 310 310 310 310 310 310 310 310 310 310 309 309 308 308 307 306 305 304 303 303 302 302 302 302 302 301 301 300 299 298 296 295 293 292 290 289 288 288 288 287 287 287 287 287 286 286 286 286 285 285 284 283 282 281 280 280 279
323 316 321 323 315 316 316 312 309 309 311 309 310 314 314 312 310 310 311 310 311 310 310 311 311 311 311 311 311 311 311 311 311 311 311 311 311 311 311 311 311 311 310 310 310 310 310 310 310 309 309 309 308 307 307 306 305 304 303 302 302 301 301 301 301 301 300 299 299 298 296 295 293 292 290 288 288 287 287 287 287 287 287 287 286 286 286 285 285 284 284 282 281 280 279 279 279
327 320 319 319 315 314 315 315 311 309 311 311 312 312 310 311 310 310 310 310 310 309 310 310 311 311 311 311 311 311 311 311 311 311 311 311 311 311 311 311 311 311 311 310 310 310 310 310 309 309 309 308 308 307 306 305 305 304 303 302 301 301 301 301 301 300 300 299 298 297 296 295 293 292 290 288 288 287 287 287 287 287 287 286 286 286 286 285 284 284 283 282 281 280 279 279 279
320 319 318 318 316 314 314 315 313 312 314 313 313 313 311 310 310 309 310 310 309 309 310 310 311 311 311 311 311 311 311 311 311 311 311 311 311 311 311 311 311 311 311 310 310 310 309 309 309 308 308 308 307 307 306 305 304 304 303 302 301 301 301 300 300 300 300 299 298 297 296 295 294 292 289 288 287 287 286 286 286 286 286 286 286 286 285 285 284 284 283 281 281 280 280 279 279
316 316 315 316 316 315 314 314 314 313 314 317 316 315 313 311 310 309 309 309 309 309 310 310 310 310 310 311 311 311 311 312 312 311 311 311 312 312 312 311 311 311 310 310 310 309 309 309 308 308 307 307 307 307 306 305 305 304 304 303 302 302 301 300 300 300 300 299 298 297 297 296 294 292 290 288 287 287 286 286 286 286 286 286 286 285 285 285 284 283 282 281 280 280 280 279 279
315 316 316 317 315 315 313 314 316 313 313 320 320 315 311 309 309 309 309 309 309 309 309 309 310 310 310 311 311 311 311 312 312 311 311 311 312 311 311 311 311 310 310 310 309 309 309 308 308 308 308 307 307 307 307 306 306 305 305 304 304 302 301 300 300 300 299 299 298 298 297 296 294 292 290 289 287 286 286 286 286 286 286 286 285 285 285 284 284 283 282 281 280 280 280 279 279
316 316 318 317 315 316 313 314 318 314 312 316 315 311 309 309 309 309 309 310 310 310 308 309 311 310 311 312 311 311 311 311 310 310 311 311 311 311 311 311 310 310 310 309 309 308 308 308 308 308 308 308 307 307 307 307 307 306 306 305 304 302 301 300 299 299 299 298 298 298 298 297 295 292 290 289 287 286 286 286 286 286 286 285 285 285 285 284 283 282 281 280 280 279 279 279 279
318 317 317 316 315 316 315 315 317 313 310 310 310 309 309 309 309 310 310 310 310 311 310 310 311 310 310 311 311 310 309 309 308 308 309 309 310 310 310 310 310 310 309 309 309 308 308 308 308 307 307 307 307 307 307 307 307 306 305 304 303 301 300 299 299 298 297 297 296 297 297 297 295 293 291 289 288 287 286 286 286 286 285 285 285 285 285 284 283 282 281 280 280 279 279 279 278
317 314 315 316 315 314 314 313 312 310 310 310 311 310 310 311 310 310 309 307 309 312 311 311 311 310 310 310 309 309 308 308 308 308 308 307 307 308 308 308 309 309 309 309 309 308 308 308 307 307 307 307 307 307 306 306 305 304 303 302 300 299 298 298 297 297 296 295 295 296 297 297 295 293 291 289 288 287 286 286 286 285 285 285 285 285 285 284 283 282 281 280 280 279 279 279 278
316 312 314 316 316 312 310 310 308 309 312 312 311 312 315 316 312 310 309 307 309 309 308 309 310 310 309 308 308 307 308 307 307 307 307 306 306 306 306 306 307 308 308 308 308 308 308 307 308 308 308 308 307 306 306 305 304 303 302 300 298 298 297 297 296 297 295 295 295 297 297 296 295 293 291 289 288 287 286 286 286 285 285 285 285 285 285 284 283 282 281 280 280 279 279 278 278
314 313 313 313 314 312 310 310 309 310 313 313 310 314 322 320 313 312 310 309 310 307 307 307 307 308 308 307 307 307 307 307 306 306 306 306 306 306 306 306 307 307 307 308 308 308 308 308 308 308 308 308 307 307 305 304 304 303 302 301 300 299 298 298 299 298 297 297 298 298 296 295 294 292 291 289 288 287 286 286 285 285 285 285 285 285 284 284 283 281 281 280 280 279 278 278 278
312 312 312 312 312 312 311 309 310 311 313 311 309 314 321 318 314 314 311 311 311 308 308 307 306 307 307 307 307 307 307 307 306 306 306 306 306 307 308 307 307 307 307 308 308 308 307 307 308 308 308 308 308 307 306 305 304 303 302 302 301 300 299 300 299 298 297 297 297 296 295 294 293 292 291 289 288 287 286 286 285 285 285 285 285 285 284 283 282 281 281 280 279 278 278 278 278
313 313 311 313 313 311 310 307 308 311 312 312 311 313 317 317 318 317 311 312 313 311 311 308 306 307 308 307 307 307 307 307 307 307 307 307 307 308 308 307 306 306 307 308 307 307 306 306 307 308 308 308 308 307 306 305 304 303 302 301 300 299 299 298 298 297 296 296 295 295 294 293 293 292 291 290 288 287 286 286 285 285 285 285 285 285 284 283 282 281 280 280 279 278 278 277 277
315 314 311 312 310 310 310 308 310 311 311 316 318 314 314 316 318 316 312 313 313 313 313 311 307 307 307 307 307 307 307 307 307 307 307 307 307 307 306 306 305 305 307 307 307 306 306 305 305 307 308 308 308 307 306 305 304 303 302 301 300 299 298 297 296 296 296 296 295 294 294 294 293 292 291 290 288 287 286 286 285 285 285 285 285 285 284 283 282 281 280 280 279 278 278 278 277
313 312 311 311 310 310 310 309 311 311 311 320 323 315 311 312 312 311 312 313 313 314 315 312 308 307 307 307 306 307 307 307 307 307 307 306 306 306 305 306 305 305 306 306 306 306 305 305 305 305 307 307 307 307 306 305 304 302 301 301 300 299 298 297 296 296 295 295 294 294 294 294 294 292 291 290 288 286 286 286 285 285 285 285 285 284 284 283 282 281 280 279 279 278 278 277 277
309 312 314 312 312 314 314 312 312 310 311 323 326 314 309 309 312 313 311 311 313 315 313 312 310 308 308 307 306 307 307 307 307 306 306 305 305 305 305 305 305 305 305 305 305 305 304 304 304 304 305 306 307 306 306 305 303 302 301 301 300 299 298 297 296 296 296 295 295 294 295 295 293 292 291 290 288 286 285 285 285 285 285 285 284 284 284 283 282 281 280 279 279 278 278 277 277
306 312 314 311 312 316 317 317 316 310 308 319 322 312 308 310 314 315 310 311 316 316 313 313 312 308 307 307 306 307 307 306 306 305 305 305 305 305 305 305 305 305 304 304 304 304 303 303 303 304 305 305 306 306 305 305 303 302 301 301 300 299 298 297 296 296 296 296 295 295 295 294 293 291 290 289 288 286 286 285 285 285 285 285 284 284 284 283 281 280 280 279 279 278 278 277 277
307 311 313 313 315 313 311 313 313 309 307 311 311 307 308 310 311 311 309 311 315 313 312 313 311 308 306 306 306 306 306 305 305 305 304 304 304 305 305 305 305 304 304 304 303 303 302 301 302 303 304 305 305 305 305 304 303 302 301 300 300 299 297 296 296 296 295 295 295 295 295 294 293 292 291 290 289 287 286 285 285 285 285 284 284 284 284 282 281 280 280 279 278 278 278 277 277
308 310 311 314 316 308 305 309 308 307 308 307 305 306 310 311 311 314 311 309 309 307 308 309 308 307 306 306 306 306 305 305 304 304 304 304 305 305 305 305 304 304 303 303 303 303 301 300 302 303 303 304 304 304 304 303 303 302 301 300 299 299 297 296 296 295 295 294 294 295 295 294 293 293 293 291 289 287 286 285 285 285 285 284 284 284 283 282 281 280 279 279 278 278 278 277 276
309 309 309 312 315 308 306 309 308 307 308 306 305 309 313 312 311 314 309 305 306 306 307 308 306 306 306 306 306 305 305 305 304 304 304 304 304 304 305 304 304 303 303 303 303 302 300 299 301 302 303 303 303 303 302 302 301 301 301 300 299 298 297 296 295 295 294 294 294 294 294 294 294 294 293 291 287 286 285 285 285 284 285 284 284 284 283 282 280 280 279 279 278 278 277 277 276
311 310 312 315 313 308 308 310 308 306 308 309 308 310 312 310 309 311 308 306 307 305 305 306 305 305 305 305 306 305 305 304 304 304 304 304 305 305 304 304 303 303 302 302 302 300 299 298 299 301 302 302 301 301 301 300 300 300 300 299 299 298 297 296 295 294 294 293 294 294 294 294 294 294 293 289 286 285 285 285 284 284 285 284 284 284 283 282 280 280 279 279 278 278 277 277 276
310 309 314 314 308 306 309 312 310 306 307 309 308 308 309 309 310 313 312 311 310 306 304 303 303 305 305 305 305 305 304 304 304 304 304 305 305 304 304 303 303 302 302 302 301 299 297 297 297 299 299 300 300 300 300 299 299 299 299 299 298 298 297 296 295 294 294 293 293 293 294 294 293 294 292 287 285 285 284 284 284 284 284 284 284 284 283 281 280 280 279 279 278 277 277 276 275
309 310 312 310 309 308 308 310 311 308 307 308 307 306 307 307 310 315 313 311 309 308 305 302 302 304 304 304 305 305 304 304 303 304 304 305 305 304 303 302 302 302 301 301 300 297 296 297 297 297 297 297 298 299 299 299 299 298 298 298 298 297 297 296 295 294 293 293 292 293 293 293 293 294 291 287 285 284 284 284 284 284 284 284 284 284 283 281 280 280 279 279 278 277 277 276 275
305 306 307 308 309 310 308 308 310 308 307 308 308 307 306 308 313 315 311 309 307 306 305 304 304 303 302 304 305 304 304 304 303 304 305 305 304 303 303 302 302 301 301 300 299 297 296 296 296 296 296 296 297 298 298 298 298 298 297 297 297 297 296 295 295 294 293 292 292 292 292 293 294 294 291 287 285 284 283 283 284 284 284 284 284 283 283 282 281 280 279 279 278 277 277 276 275
306 306 309 309 308 309 309 309 310 308 307 308 309 308 306 310 316 313 307 306 306 305 305 304 303 302 302 304 304 304 304 303 304 304 305 305 304 303 302 302 301 301 300 299 299 298 297 296 295 295 296 296 296 297 297 298 298 298 297 297 296 296 295 295 294 293 293 292 292 291 291 292 293 294 292 289 286 284 283 283 283 284 284 283 284 283 283 282 281 280 279 278 278 277 276 276 275
309 309 310 309 308 309 308 307 308 308 308 309 308 306 306 308 310 307 305 306 305 305 304 303 303 302 303 303 303 304 304 303 304 304 305 304 303 302 302 301 301 300 300 299 299 299 298 296 295 295 296 296 296 296 297 297 297 297 297 296 296 295 295 294 294 293 292 291 291 291 291 292 293 294 293 290 287 284 283 283 283 283 283 284 284 283 283 282 281 280 279 278 277 277 276 276 275
307 308 308 308 307 307 306 306 308 308 308 308 306 305 305 305 306 305 305 305 304 303 303 302 303 303 303 303 303 304 304 303 304 304 304 304 302 302 302 301 300 300 300 300 300 299 298 297 296 295 295 296 296 297 296 297 297 297 297 296 296 295 294 294 293 292 292 291 291 290 291 291 293 294 293 291 287 284 283 282 283 283 283 283 283 283 283 282 281 280 279 278 278 277 276 276 275
Wind_Speed
16 17 16 14 13 12 9 5 1 2 1 2 4 3 4 1 3 4 4 3 2 1 4 5 6 8 6 5 6 6 4 3 4 4 4 10 19 18 16 15 13 11 8 6 6 6 7 9 9 9 10 10 10 11 11 10 9 8 7 6 5 4 3 3 3 3 3 4 4 4 5 7 9 12 13 14 14 14 15 15 14 14 13 12 9 8 10 12 12 12 13 13 14 14 15 16 16
17 18 17 12 11 10 5 5 1 2 1 4 4 3 3 1 2 4 6 4 3 6 8 7 7 7 6 7 6 4 2 1 4 6 10 18 21 17 16 13 9 8 7 5 6 8 9 10 9 9 10 10 10 10 10 10 10 9 8 7 5 4 3 2 3 2 3 3 3 4 7 8 11 13 14 15 15 15 14 14 15 14 12 10 7 9 11 12 12 12 12 13 14 14 15 16 16
16 18 16 10 8 5 1 3 2 1 3 5 4 3 3 2 2 4 6 6 7 11 9 7 6 5 5 4 4 3 2 3 6 9 16 21 19 16 14 10 6 6 7 6 6 7 8 8 8 9 10 10 10 10 10 10 9 9 8 7 6 5 4 3 3 3 3 3 4 6 9 10 12 14 15 15 15 14 14 14 14 13 11 9 7 10 11 11 12 12 13 14 14 15 16 16 17
14 12 10 5 2 1 0 2 2 3 3 4 4 5 3 5 5 4 7 11 12 13 9 8 4 4 4 3 4 2 5 8 7 10 15 18 14 13 12 8 7 7 6 5 6 5 6 7 8 10 11 11 10 10 9 9 9 9 8 7 6 5 5 4 4 4 4 5 6 8 10 11 13 15 15 15 14 14 14 14 13 11 10 9 9 11 11 12 12 13 14 15 16 17 17 17 18
9 6 4 1 1 2 1 1 2 4 4 4 3 5 4 6 7 6 9 13 12 11 10 8 2 5 4 4 5 1 8 11 9 11 11 15 14 12 10 7 8 6 6 5 4 3 6 7 9 10 11 11 10 10 9 9 9 8 8 7 7 6 6 5 5 6 6 7 8 10 11 12 14 15 15 15 14 14 14 13 12 10 9 9 10 11 11 12 13 14 16 17 17 18 18 18 19
6 4 2 3 3 3 1 2 2 3 5 5 2 3 5 6 9 9 10 11 9 8 8 7 2 5 3 4 7 5 10 11 11 16 12 14 15 13 11 9 8 7 6 5 4 4 6 7 9 10 11 11 10 10 9 9 9 8 8 7 7 7 7 7 6 7 8 9 10 11 12 13 15 15 15 14 14 14 13 12 11 10 9 10 10 11 12 13 15 16 17 17 18 18 19 20 20
3 2 3 4 4 3 1 3 5 5 5 5 3 4 6 8 14 13 11 8 6 7 7 6 5 6 2 4 8 8 11 10 12 16 13 12 13 13 12 10 9 8 7 6 4 4 5 7 8 9 10 10 10 9 9 9 9 9 8 8 8 8 8 8 8 8 9 10 11 12 13 14 15 15 15 14 14 13 12 11 10 10 10 10 10 11 13 14 15 16 17 17 17 18 19 20 21
2 3 3 1 1 1 1 4 5 4 4 3 2 7 11 14 18 14 8 6 6 7 8 8 8 5 2 5 7 8 13 12 12 13 13 12 12 13 12 10 9 9 8 7 4 4 4 5 6 8 9 10 11 11 11 10 10 10 10 10 9 9 8 9 9 9 10 11 12 13 14 14 15 14 14 14 14 13 12 11 10 10 10 10 10 11 13 14 15 16 16 17 17 18 19 20 21
5 6 5 1 1 2 2 4 5 3 3 2 2 6 15 19 19 13 7 5 6 8 10 12 10 4 2 8 7 8 16 16 14 13 14 14 13 13 11 11 10 9 9 8 4 4 3 3 4 6 9 10 12 12 12 12 11 10 10 10 10 10 9 9 9 10 11 12 13 14 15 15 15 14 14 14 13 13 12 12 10 10 10 10 11 12 13 14 15 16 17 17 18 19 20 21 22
9 6 5 0 1 3 4 4 5 3 2 3 3 10 16 19 17 13 11 6 9 9 11 14 10 7 3 6 8 9 17 18 18 17 16 16 14 14 12 12 12 11 10 8 5 4 3 2 2 5 8 10 11 12 13 13 13 11 11 10 10 10 10 10 10 11 12 13 14 14 15 15 15 14 14 14 13 13 12 12 11 10 10 10 11 12 14 14 15 16 17 18 18 19 20 22 23
7 5 4 0 0 3 5 4 5 4 3 2 4 13 18 19 15 11 11 7 12 11 12 15 7 12 7 4 8 9 16 19 19 19 18 19 17 16 14 13 13 12 10 8 7 5 4 3 1 4 7 8 9 11 13 14 14 13 12 11 11 11 11 12 12 12 13 14 15 15 15 15 15 14 14 14 14 13 12 12 11 10 10 11 12 13 14 14 15 16 17 18 19 20 21 22 23
4 2 0 1 3 4 5 5 5 4 2 2 4 12 17 19 13 9 11 7 13 11 14 19 6 10 7 4 10 10 16 19 18 19 19 20 19 18 16 14 13 13 10 8 9 8 6 5 2 3 5 6 7 9 12 14 15 15 15 14 13 12 12 13 13 14 15 15 16 16 15 15 14 14 13 13 13 13 12 12 11 10 11 11 13 14 14 15 16 16 17 18 19 20 21 23 24
2 1 3 1 4 3 4 5 4 2 3 5 5 12 17 17 11 11 14 9 12 10 13 22 8 6 8 4 9 13 19 19 18 19 19 20 20 20 18 15 14 14 11 10 11 10 8 7 4 2 3 4 5 7 9 11 13 14 15 15 14 14 13 13 14 15 16 17 17 17 16 15 14 14 13 13 13 12 11 11 11 11 11 12 13 14 15 16 16 17 18 19 20 21 22 23 24
3 2 2 2 2 2 4 4 2 3 5 5 6 14 19 13 11 13 15 8 11 12 11 19 13 6 9 6 7 16 20 19 20 22 21 20 19 20 19 18 16 14 13 12 12 12 10 9 7 3 1 2 3 5 7 9 10 12 14 15 15 14 14 14 14 15 17 18 18 18 17 16 15 14 13 13 12 12 11 11 11 11 12 13 14 15 15 16 16 17 18 19 20 21 22 23 25
4 3 1 1 3 3 4 4 4 6 5 2 9 17 16 9 11 13 14 10 11 14 10 15 17 6 5 7 9 16 17 19 23 23 23 21 20 20 20 20 18 16 15 15 14 14 13 11 9 6 3 1 1 3 5 7 9 11 13 14 15 15 15 15 15 16 17 18 18 19 18 17 16 14 13 13 12 11 11 10 11 11 12 13 14 15 16 16 17 18 18 19 20 22 23 24 25
4 3 2 1 3 3 3 3 4 5 5 1 9 16 11 6 12 13 12 12 8 11 12 17 22 14 6 7 9 10 11 19 25 24 23 21 20 20 20 20 20 17 16 17 17 16 15 14 11 8 5 3 2 2 4 5 7 9 11 13 14 15 15 15 15 16 17 18 19 19 19 18 17 15 14 13 12 11 11 11 11 11 12 13 14 15 16 16 17 18 19 20 21 22 24 25 26
3 2 2 3 3 2 3 3 3 2 4 1 8 14 8 3 11 12 11 12 8 8 12 15 20 22 15 9 9 8 8 18 26 24 24 22 22 22 21 21 21 20 19 19 18 18 17 16 14 11 7 5 5 5 5 5 6 7 8 10 12 14 14 15 15 16 18 18 18 19 19 19 18 16 15 14 12 11 12 11 11 12 12 13 14 15 16 16 17 18 19 20 21 23 24 25 26
1 2 2 4 3 3 2 1 3 1 2 3 8 14 9 4 9 12 9 11 12 11 14 14 15 22 22 16 14 13 10 16 25 26 25 24 24 23 23 23 23 23 22 21 20 20 19 18 16 13 9 8 8 8 8 7 7 8 8 9 11 13 14 15 15 16 18 18 18 19 19 18 18 17 16 15 13 12 12 12 13 13 13 14 15 15 16 16 17 18 19 20 22 23 25 26 28
1 2 1 4 4 3 0 1 2 3 2 6 9 13 11 7 10 12 7 8 12 12 16 18 18 20 21 20 19 16 13 16 23 25 26 25 25 25 24 24 24 24 24 23 22 21 21 20 19 16 12 10 10 11 11 10 10 10 10 12 12 14 15 16 16 17 18 19 18 18 18 18 18 17 17 15 14 13 13 13 13 13 14 14 15 15 16 17 18 19 20 21 22 24 26 28 30
2 2 1 5 4 2 3 3 2 4 3 4 7 12 12 9 11 11 6 8 9 11 15 15 21 26 23 21 21 19 18 19 22 24 26 27 27 28 27 27 26 26 25 23 23 23 23 22 21 19 16 14 14 13 13 13 12 12 13 14 15 15 16 17 17 18 18 19 19 18 18 18 18 17 17 16 15 14 13 13 14 14 14 14 15 16 16 17 18 19 20 22 23 25 27 29 30
1 2 4 5 2 2 2 4 4 6 4 4 7 10 10 11 12 12 9 6 7 13 22 22 25 30 26 24 24 24 24 24 25 26 28 29 30 30 30 30 28 26 22 22 24 24 24 23 22 22 19 17 17 17 16 16 16 16 16 16 17 18 18 19 19 19 18 19 19 18 18 17 17 17 17 16 15 14 14 14 14 14 15 15 16 16 17 18 19 20 21 23 24 26 28 29 31
2 2 5 3 1 1 3 4 6 6 4 6 5 7 6 10 11 14 13 7 10 15 20 22 24 26 26 26 26 28 29 30 31 31 32 33 32 32 31 30 28 25 21 22 25 25 25 25 25 24 23 21 21 21 20 20 20 19 19 19 19 19 20 20 21 20 20 19 19 19 18 17 17 18 18 17 16 15 14 15 15 15 15 16 16 17 18 18 19 21 22 23 25 27 28 30 31
2 4 2 1 1 2 4 5 6 5 4 4 2 4 6 7 9 15 18 19 23 22 17 14 14 15 18 23 26 30 32 34 35 35 35 35 34 33 31 29 27 25 23 24 26 26 27 27 28 27 26 26 25 24 23 23 23 21 21 21 21 20 21 21 21 22 21 20 19 20 19 17 17 17 18 17 17 16 15 15 15 16 16 16 17 17 18 18 20 21 22 24 25 27 28 30 30
3 4 3 1 3 4 4 5 6 5 5 5 4 6 6 6 7 10 20 29 31 29 26 21 18 16 16 20 25 29 31 33 35 36 36 34 34 33 30 28 26 25 26 27 28 29 30 30 30 30 30 29 28 27 26 26 24 24 24 23 22 22 22 22 22 22 22 21 20 20 19 17 17 17 18 17 17 16 16 15 15 16 16 16 17 17 18 19 20 21 22 24 25 27 29 30 30
3 3 4 4 5 5 5 6 6 6 7 7 6 8 11 11 8 10 26 35 33 33 32 30 28 26 26 26 26 27 29 30 31 32 33 33 33 32 31 29 26 25 28 29 30 31 31 32 32 33 33 32 31 29 29 28 27 26 26 25 24 23 24 23 22 23 22 21 21 20 19 17 17 17 17 17 17 16 16 16 16 16 16 17 17 17 18 19 20 21 22 24 26 28 29 30 29
2 4 6 6 6 5 6 8 8 7 7 6 5 9 13 13 8 13 32 35 29 30 31 32 31 30 30 30 30 30 31 31 31 30 29 29 29 31 32 30 28 28 29 29 31 32 32 33 34 35 35 34 33 32 31 31 29 29 28 27 26 25 24 23 23 23 22 21 21 20 18 17 17 17 17 18 17 17 16 16 16 16 16 17 17 17 18 19 20 21 22 24 26 28 29 28 27
2 5 7 8 11 10 8 9 10 8 8 8 6 8 13 13 3 9 28 28 19 19 22 27 30 32 33 32 33 32 34 36 35 34 32 30 30 32 32 31 31 29 29 30 31 32 33 34 35 36 37 36 35 34 33 32 31 31 30 29 27 26 25 24 24 24 22 21 20 19 18 16 17 18 18 18 18 17 17 17 16 16 16 16 17 18 18 19 19 20 22 24 26 28 27 26 25
4 5 7 10 12 13 11 11 11 7 5 8 8 9 13 10 4 15 28 25 19 17 18 21 25 31 33 33 34 32 35 35 34 34 34 34 34 35 34 32 32 30 29 30 31 32 33 34 35 36 37 37 37 36 35 33 33 32 32 31 29 28 27 25 25 24 22 21 20 19 17 16 17 18 18 18 18 18 18 17 17 16 16 16 17 18 18 19 19 20 21 23 25 26 24 23 23
5 3 4 8 8 8 13 12 10 7 3 5 4 7 9 5 10 24 27 25 24 22 22 24 24 27 30 31 33 33 33 32 32 33 33 33 32 33 33 32 31 31 30 30 31 33 34 35 35 36 37 38 38 38 36 35 34 33 33 32 30 29 28 27 26 24 22 21 20 18 17 17 17 18 18 18 18 18 18 17 17 16 16 17 17 18 18 18 19 20 21 23 24 23 23 23 23
5 2 1 5 7 6 10 8 8 6 4 4 1 4 8 7 15 23 21 21 24 22 26 29 27 27 28 29 31 32 32 32 32 32 31 30 29 29 29 28 28 29 30 29 31 33 34 34 35 36 37 38 38 38 37 35 34 34 34 33 32 30 29 28 27 24 22 21 20 18 17 17 17 18 18 19 19 18 18 18 17 17 17 17 17 17 18 18 19 20 22 23 23 22 22 22 23
2 2 0 2 3 5 8 2 7 4 4 6 4 2 10 10 14 19 18 18 19 19 26 28 29 29 29 30 29 30 31 31 32 31 29 28 27 27 26 25 24 26 28 29 31 32 33 34 34 35 36 37 38 38 37 36 35 34 34 34 33 31 30 29 27 25 23 21 21 19 17 17 17 18 18 19 19 19 19 18 17 17 17 17 17 17 17 18 19 20 22 23 22 21 22 22 23
2 2 4 3 1 5 9 4 7 5 3 6 6 3 10 12 14 16 14 14 16 17 23 25 28 30 31 31 29 30 31 30 32 31 29 27 25 25 24 22 21 23 25 27 28 30 32 33 33 34 36 37 37 37 37 36 35 35 35 34 33 32 31 30 28 25 23 22 21 20 18 18 18 18 18 19 19 19 19 18 17 17 17 17 17 17 18 18 19 21 22 22 21 21 22 22 22
3 3 4 5 4 5 7 7 5 5 1 3 6 4 7 11 16 21 19 17 19 19 25 28 29 30 32 32 31 30 31 31 31 31 30 28 25 24 23 21 20 21 23 24 26 27 29 30 31 33 34 35 36 36 36 35 36 35 35 34 33 33 32 31 28 26 24 23 22 20 19 19 18 18 18 19 19 19 19 18 18 17 17 17 17 17 18 19 19 21 21 20 20 21 22 22 21
4 3 3 4 4 5 5 8 6 2 1 4 6 6 10 14 19 31 32 24 21 21 26 31 31 32 32 32 31 31 30 29 30 29 28 25 24 23 22 22 21 21 22 23 24 25 26 27 28 30 31 32 34 34 35 35 35 35 35 35 34 34 33 31 28 26 25 24 22 20 20 20 19 18 18 19 19 19 19 18 18 18 17 17 17 18 18 19 19 21 21 20 19 20 21 20 20
4 4 4 5 5 5 6 7 5 1 1 5 5 7 14 16 17 29 36 26 19 22 25 30 33 33 31 29 30 32 31 29 28 27 24 22 23 23 23 23 23 22 21 21 21 22 23 24 25 27 28 30 31 32 33 34 34 35 36 35 35 35 34 32 29 28 26 25 23 21 20 21 20 18 18 20 19 19 19 19 18 18 18 17 17 18 18 19 19 20 21 20 19 19 19 19 20
5 5 3 5 6 7 8 8 6 1 2 5 7 10 12 17 17 22 34 31 22 23 24 25 28 27 25 26 27 29 28 25 24 23 22 22 22 21 19 20 21 20 17 16 18 21 22 23 24 25 26 28 29 30 31 32 33 34 35 36 36 36 35 33 31 28 27 26 24 22 21 21 20 19 19 20 20 19 20 19 19 18 18 18 17 18 18 19 19 20 20 20 19 19 19 19 20
4 3 3 6 7 7 8 8 6 2 2 6 7 10 12 17 19 18 29 31 20 18 18 18 23 20 16 16 18 20 19 15 13 13 15 16 15 13 12 13 15 13 11 14 16 19 21 23 25 26 27 28 29 30 30 31 31 33 34 35 36 35 35 33 32 30 28 26 24 23 22 21 19 20 20 20 20 20 20 20 19 19 18 18 17 18 18 19 20 20 20 19 18 19 19 19 20
2 3 5 7 6 7 9 7 5 6 5 7 8 11 13 16 18 18 22 21 14 13 11 13 16 11 10 11 12 8 4 7 12 9 7 4 2 2 3 6 7 9 11 14 16 18 21 23 26 27 29 30 31 32 32 32 32 32 33 34 34 33 33 33 32 30 28 27 25 24 22 20 19 20 20 20 20 21 21 21 20 19 18 18 17 18 18 19 20 20 20 19 17 18 19 19 20
3 4 4 6 5 6 8 4 4 8 5 9 12 10 12 16 15 14 15 12 11 12 8 8 9 11 14 14 16 16 17 22 24 21 19 14 9 5 3 5 8 12 14 15 18 20 22 24 26 28 30 32 34 34 35 35 34 33 33 34 33 32 32 32 31 29 27 27 27 25 23 20 20 20 21 20 21 21 21 21 20 19 19 18 17 18 19 19 20 20 19 18 17 18 18 18 18
3 3 3 6 5 5 6 4 7 7 4 6 10 9 8 12 10 8 12 13 12 15 17 14 13 16 19 20 22 24 22 22 22 21 19 16 13 9 8 10 11 13 15 17 20 22 24 26 28 30 32 34 35 36 37 36 34 34 34 33 32 31 32 31 30 29 29 29 28 27 24 21 20 20 21 21 21 22 22 21 21 20 19 18 17 18 19 19 20 20 18 17 17 17 18 18 17
5 4 3 5 6 4 6 7 10 9 4 2 7 9 6 6 8 8 10 16 15 18 24 24 22 23 25 26 24 22 20 19 19 18 18 16 14 12 11 13 13 14 15 18 21 23 26 27 29 32 33 35 36 37 36 35 35 35 35 34 33 33 33 32 32 34 33 32 30 29 26 22 21 21 21 21 21 22 22 22 21 20 19 18 17 18 19 20 20 19 18 17 16 17 18 17 15
7 5 4 4 6 8 8 8 10 7 5 4 7 6 6 5 8 8 6 9 10 12 16 18 22 24 22 21 19 18 18 18 17 17 16 14 13 11 10 11 14 17 19 21 23 24 26 29 31 32 34 35 36 36 36 35 35 35 36 37 37 37 37 37 37 38 36 32 30 28 26 23 22 22 21 21 21 21 22 22 21 20 19 18 17 18 19 20 20 19 18 17 16 16 17 17 14
6 4 2 4 7 10 10 7 6 3 5 6 4 3 5 6 6 8 5 6 7 9 9 10 15 17 15 15 14 14 15 16 16 15 14 13 12 10 10 12 15 21 23 22 22 23 26 29 31 33 35 36 36 36 35 35 35 36 37 39 40 40 40 40 38 37 35 32 29 28 26 25 23 23 22 21 21 22 22 22 21 20 19 18 17 18 19 20 20 18 17 16 16 16 17 17 15
6 4 3 9 10 11 10 5 1 3 4 7 2 5 3 5 6 8 5 5 7 8 6 5 5 9 10 10 10 12 13 13 13 13 12 12 11 11 13 14 18 23 21 18 22 27 28 28 29 32 34 35 36 36 35 35 35 36 37 38 40 41 40 40 38 36 35 32 31 30 28 27 25 24 23 22 22 22 22 22 21 20 20 18 18 18 19 19 19 18 17 15 15 15 16 16 15
7 6 5 9 9 8 6 2 3 2 3 6 5 2 0 5 7 7 4 4 6 7 6 7 3 4 6 6 7 9 9 10 10 10 11 11 11 13 15 18 21 23 21 22 28 33 32 31 30 30 32 34 36 36 36 35 34 35 36 38 39 41 40 39 38 37 35 34 33 32 31 29 27 25 24 23 23 23 22 22 22 21 20 19 18 18 19 19 18 17 16 15 15 15 15 15 15
8 7 7 8 5 3 2 1 1 2 3 4 7 2 2 6 8 6 4 3 4 7 7 7 6 1 3 6 8 7 7 7 8 8 9 9 12 15 17 20 21 22 24 26 29 31 32 33 32 30 31 33 35 36 36 34 33 33 35 38 40 41 41 40 39 39 37 36 36 35 33 31 29 27 26 25 25 24 23 22 22 22 21 20 18 18 19 19 18 16 16 15 14 14 14 15 15
7 7 6 7 6 4 2 2 3 4 3 6 7 1 3 4 8 5 2 1 5 6 6 7 6 5 4 6 9 7 5 5 5 6 7 10 15 17 17 19 22 24 27 28 27 28 30 31 32 31 31 32 34 35 35 34 33 33 35 37 39 41 41 41 41 40 40 40 39 38 35 33 31 29 28 27 26 24 23 23 22 22 21 20 18 18 19 19 17 16 16 14 14 13 13 15 16
6 5 4 6 6 4 4 5 4 4 4 8 6 3 0 3 6 6 6 6 6 7 5 6 7 6 4 6 9 5 1 2 3 5 9 14 16 17 18 21 24 28 30 28 25 26 29 31 32 31 30 30 31 34 35 35 34 34 35 37 39 40 41 42 41 41 42 42 41 39 36 34 32 31 30 29 27 25 24 23 22 22 22 20 18 18 19 19 17 16 15 15 14 13 14 15 17
7 5 5 6 5 5 5 5 4 2 7 9 4 4 3 5 7 9 10 9 7 9 8 7 8 7 5 9 9 2 2 1 4 7 11 16 16 17 19 22 26 29 29 27 25 28 31 31 31 31 30 28 29 32 34 34 35 36 36 37 39 40 40 41 40 40 41 42 41 39 37 34 33 32 31 30 28 25 24 23 22 23 22 20 19 19 19 19 17 16 15 15 14 14 15 16 18
6 3 3 3 2 4 5 4 4 4 9 13 7 2 3 5 6 8 10 9 10 15 12 7 6 8 6 10 10 4 3 3 5 9 13 16 17 17 18 22 27 28 26 25 28 32 32 29 28 29 30 27 28 30 32 35 37 37 37 37 38 39 39 40 40 40 40 41 41 39 38 35 34 32 31 31 28 25 24 23 23 23 22 21 19 19 20 19 17 16 15 15 14 14 15 17 18
4 2 3 3 3 1 3 3 3 5 8 13 10 2 3 4 5 7 11 13 9 14 12 8 8 9 7 9 10 7 5 5 7 11 14 16 16 15 17 22 25 24 24 25 29 31 29 27 27 28 29 27 27 29 32 35 38 38 38 37 37 38 39 39 39 40 41 42 42 41 39 37 35 32 31 31 29 26 25 24 23 24 23 21 20 19 20 19 17 16 16 15 15 15 16 17 18
4 1 3 1 3 4 3 5 6 5 6 8 5 3 5 4 8 10 9 11 5 7 10 11 13 14 12 15 11 8 7 8 9 12 14 14 14 13 16 20 21 21 23 26 30 30 26 26 27 27 29 29 29 31 32 34 36 37 38 38 38 38 38 38 38 39 41 42 42 42 40 38 36 33 32 31 30 28 26 25 24 24 23 21 20 20 20 19 17 17 17 16 15 15 16 18 19
2 2 1 4 5 6 2 5 4 2 4 5 3 6 5 3 8 9 7 9 7 9 12 13 16 19 18 18 12 10 11 11 11 12 13 12 12 13 15 17 17 18 22 26 29 27 23 24 26 26 29 31 31 32 34 34 34 34 37 38 38 38 38 38 37 38 39 41 42 42 40 39 36 33 32 31 31 30 28 26 25 25 24 22 20 20 20 19 18 18 17 16 15 15 17 19 20
1 2 5 3 0 3 2 2 3 3 4 5 5 11 9 3 5 7 8 9 10 12 13 12 16 19 19 19 13 13 14 13 12 12 11 10 12 13 14 14 15 18 22 26 26 25 23 23 25 26 28 29 30 32 33 34 34 32 34 36 37 38 38 38 37 37 38 40 42 42 41 40 36 33 32 32 32 32 29 27 26 25 24 22 21 21 21 19 18 18 17 16 15 15 18 19 20
3 3 3 1 2 3 2 0 1 3 4 4 8 14 10 3 5 6 6 8 11 15 15 10 12 15 19 23 20 18 17 15 14 11 9 11 12 11 11 13 16 18 22 24 24 26 27 26 26 27 28 28 28 30 31 33 33 32 32 33 35 37 37 37 37 37 37 40 42 42 42 40 36 33 33 32 33 33 31 29 27 26 25 23 21 21 21 20 19 18 17 17 16 16 18 20 20
1 3 3 1 2 4 2 2 3 2 4 4 7 12 8 5 6 4 6 10 12 14 12 9 12 18 24 28 29 26 22 18 14 11 9 12 11 8 9 13 15 17 20 21 23 26 28 29 29 29 30 31 30 28 29 31 32 31 30 31 33 34 35 36 37 36 37 39 41 43 43 41 36 34 33 33 34 34 32 30 28 27 26 24 22 22 21 20 19 19 18 17 17 17 18 19 19
2 3 4 3 2 1 2 2 2 3 3 3 5 9 9 6 2 3 10 13 12 11 11 11 17 27 34 37 38 33 27 21 15 11 12 13 9 7 9 12 14 16 17 20 22 25 27 28 29 30 31 33 32 30 29 29 31 31 30 29 31 32 34 35 36 36 37 38 40 42 44 41 37 35 33 32 34 34 34 32 30 29 27 24 23 22 22 20 19 19 18 18 18 18 19 19 19
4 3 3 4 4 2 4 5 2 2 3 4 4 8 13 9 2 5 10 9 10 17 19 18 25 35 39 41 42 39 32 23 14 12 16 14 9 9 10 12 13 14 15 19 22 24 26 27 28 30 31 32 34 33 31 30 31 31 30 28 29 30 32 34 34 35 37 38 40 42 44 42 39 37 34 32 33 34 34 33 32 30 28 26 24 23 22 21 20 19 19 18 18 18 19 19 19
Wind_Direction
141 141 142 141 146 156 165 149 85 285 160 243 239 240 264 184 143 140 137 147 134 151 120 127 138 136 126 120 136 124 106 161 181 158 174 153 156 178 185 192 205 215 239 257 301 340 342 344 353 351 351 354 354 355 359 2 5 9 13 19 34 48 64 66 68 56 46 45 35 32 7 351 337 328 324 319 315 310 308 308 310 311 309 309 314 335 357 358 352 350 348 347 343 341 340 338 338
145 145 141 138 152 160 172 154 164 289 196 255 260 227 244 46 92 158 174 183 173 157 140 141 140 132 119 111 119 114 70 161 189 149 136 149 164 184 189 198 209 222 248 278 332 354 345 348 353 351 354 354 354 354 357 357 359 2 7 11 17 31 42 46 50 42 36 36 24 2 341 333 324 320 317 313 309 306 304 305 308 305 303 303 320 349 356 355 349 346 345 342 340 337 335 333 328
152 149 141 136 152 165 237 152 181 237 204 242 264 261 214 115 140 177 176 162 145 147 147 151 146 144 129 109 137 159 173 165 177 152 147 163 174 180 187 202 209 234 262 301 350 357 340 346 352 355 358 355 353 352 355 354 356 358 0 3 3 9 11 14 8 357 7 5 346 334 328 324 317 314 311 308 305 301 301 303 304 300 299 300 331 355 353 350 346 343 341 337 335 329 325 326 322
156 150 144 136 136 243 76 150 184 177 229 242 252 265 205 148 158 169 150 140 142 152 159 153 143 170 158 155 160 150 172 171 190 176 164 172 181 180 181 198 211 237 262 310 351 351 333 348 2 5 0 356 353 350 351 351 353 355 356 355 355 356 356 355 343 338 339 332 324 321 320 317 312 310 308 305 301 298 299 301 299 296 299 304 330 350 347 345 344 340 335 330 326 322 321 323 323
148 129 128 125 352 321 95 182 191 179 233 215 241 258 186 155 158 160 145 141 152 164 165 153 148 177 175 198 182 236 177 169 191 199 184 171 176 186 190 208 219 237 260 306 340 334 338 1 12 11 5 360 353 351 350 350 353 353 355 352 351 351 351 350 337 331 324 320 318 315 315 311 308 307 305 301 297 296 298 299 298 297 303 310 321 335 340 338 336 331 325 323 322 322 322 323 325
133 125 165 240 270 299 335 265 249 235 241 183 224 233 164 158 154 145 141 143 157 169 168 159 158 172 195 226 210 241 182 173 189 197 201 181 176 189 207 221 225 240 262 298 325 328 350 9 17 18 11 5 358 355 353 353 355 354 355 353 352 351 350 348 336 329 321 318 316 312 310 307 305 304 302 298 294 294 297 298 299 301 307 315 319 324 330 328 325 323 321 324 325 326 327 329 330
108 171 212 247 260 273 182 247 251 253 247 186 188 185 164 165 153 140 139 141 161 180 179 172 149 155 221 217 210 236 197 193 200 200 208 197 184 193 213 224 233 249 269 289 309 331 356 8 19 24 18 15 10 5 2 1 359 358 356 355 356 353 350 344 335 328 321 317 313 310 307 304 303 302 299 296 294 295 297 300 301 307 310 316 322 323 324 324 323 324 326 328 331 332 333 334 334
359 285 255 209 259 303 201 253 252 232 240 214 167 171 169 163 154 144 155 160 170 189 188 179 161 158 260 202 198 219 208 215 216 211 210 205 196 199 214 226 243 256 271 285 302 330 347 7 25 33 30 27 23 20 15 11 7 3 359 358 356 353 348 341 334 328 322 317 312 308 306 303 302 300 298 296 295 297 299 302 304 308 313 319 325 326 325 326 327 329 331 334 335 336 336 336 336
316 288 260 204 232 298 270 262 257 250 256 248 69 154 162 160 159 152 166 172 167 186 196 182 170 181 233 199 206 207 209 219 219 218 215 213 208 210 220 228 248 256 268 286 302 320 325 357 39 45 41 35 31 31 26 23 17 11 5 360 355 351 345 339 333 326 321 315 311 307 304 303 302 300 299 298 298 300 301 302 306 309 314 321 325 328 328 329 332 334 335 337 338 338 338 338 338
319 275 237 123 198 279 287 269 257 263 226 197 131 153 158 161 165 160 165 176 179 181 199 188 182 211 212 192 202 204 210 217 216 221 223 220 217 222 229 231 247 256 268 287 291 288 275 296 62 55 50 43 36 35 32 31 26 20 13 5 357 350 344 338 332 325 319 314 311 306 305 303 302 301 300 300 301 301 301 304 306 310 315 322 326 329 331 333 335 337 337 338 339 339 339 339 340
313 255 231 288 216 261 261 261 264 256 205 159 145 164 164 166 164 167 173 179 187 181 189 184 197 221 227 236 212 216 216 219 223 229 232 227 224 227 231 235 246 257 266 276 274 259 242 244 139 73 65 55 42 37 33 33 29 26 19 11 2 351 344 337 331 324 318 313 310 306 305 303 303 302 303 303 303 303 303 304 304 309 316 321 328 331 333 336 337 338 338 338 339 339 339 339 341
301 269 19 209 221 227 232 254 264 257 237 177 179 179 170 169 163 175 187 187 186 181 187 183 194 212 205 270 232 227 218 224 234 237 238 232 229 228 231 236 245 256 260 263 265 254 234 229 215 101 88 68 50 39 32 31 27 24 20 14 6 355 344 335 329 323 317 312 309 306 304 303 304 303 304 304 304 305 303 302 302 307 315 323 329 332 334 336 337 337 337 338 339 339 339 340 341
294 322 64 231 228 225 252 274 241 210 259 219 192 183 174 175 180 188 189 194 187 180 195 192 189 190 195 255 237 226 222 231 237 235 238 236 232 229 231 233 240 252 254 257 260 255 238 227 225 171 109 78 53 38 30 29 26 21 17 14 8 0 348 336 326 320 315 312 309 307 305 303 304 304 305 305 304 302 299 297 300 307 316 325 329 331 333 334 335 336 338 339 338 339 339 340 341
310 338 95 244 264 272 260 276 241 205 265 233 163 168 175 185 197 189 185 198 202 198 212 202 193 184 215 237 230 223 225 232 229 229 235 236 234 230 234 235 238 246 250 254 253 253 244 233 230 220 150 96 50 35 30 21 21 16 11 9 7 2 352 341 328 319 314 312 310 308 306 304 303 304 303 302 300 294 292 294 300 310 318 324 327 329 331 331 333 336 338 337 337 338 339 339 338
312 325 97 242 298 304 254 253 259 229 259 230 157 165 173 198 197 193 194 202 218 217 224 207 198 195 221 221 224 227 229 225 219 224 228 231 233 231 237 239 241 242 246 252 247 248 245 239 237 233 236 176 23 21 27 13 8 3 2 359 359 358 353 345 333 322 316 312 310 309 307 304 303 302 300 297 294 290 291 296 303 311 316 320 323 326 327 329 332 335 336 335 336 338 337 337 337
312 333 72 320 272 276 271 283 297 243 263 221 163 166 168 209 196 201 211 207 226 223 215 206 205 213 227 225 226 231 235 219 213 219 223 227 231 229 235 240 245 242 241 245 244 247 246 245 246 247 253 241 263 327 0 358 354 351 351 348 348 350 348 345 338 329 321 314 311 310 308 306 303 300 298 294 292 294 298 301 305 309 312 316 319 322 325 328 330 332 334 334 336 336 334 335 335
312 22 92 287 259 245 282 311 333 259 258 224 171 169 162 219 199 207 222 220 232 212 207 210 213 221 231 249 247 256 251 215 210 214 217 223 228 228 232 237 243 244 242 242 243 245 247 249 253 260 264 264 275 296 320 324 330 334 337 337 337 340 341 340 337 333 327 320 313 311 309 306 303 299 296 295 296 301 303 304 306 308 313 315 318 320 323 327 329 330 332 334 334 334 333 333 333
324 110 152 260 247 247 246 260 293 273 243 222 196 182 171 197 198 204 222 232 240 235 229 227 223 225 231 246 256 265 258 214 209 212 217 222 226 230 235 239 243 247 248 246 244 244 246 250 254 263 267 269 279 290 300 303 308 313 317 321 326 330 333 334 332 332 330 324 315 309 309 306 302 299 297 298 301 304 304 306 309 312 315 315 316 318 323 326 327 329 330 332 332 331 331 332 333
221 163 207 245 226 240 154 11 316 12 286 222 208 198 192 209 200 197 216 236 236 243 246 239 239 234 229 238 248 253 241 218 215 218 224 228 231 237 242 247 248 251 251 250 249 247 247 249 254 263 266 267 272 281 289 291 294 298 303 309 317 322 324 327 327 328 329 326 318 309 307 305 302 299 298 301 303 306 308 311 312 313 313 313 315 317 322 324 325 328 330 331 331 331 332 334 335
242 170 235 246 235 276 21 23 346 353 315 218 218 209 206 221 209 197 214 241 230 230 237 232 237 237 229 231 238 240 233 224 226 229 234 238 242 247 250 252 254 255 256 258 256 249 247 247 252 260 261 264 268 272 276 280 283 285 293 302 307 312 315 319 320 322 326 326 320 311 306 305 303 301 300 302 303 308 311 311 311 311 311 312 314 317 320 322 325 328 329 331 331 332 334 335 335
270 154 203 237 280 319 346 17 331 310 312 273 231 198 212 230 217 205 202 234 242 232 235 233 236 240 238 233 232 235 236 233 235 238 241 245 249 252 256 257 260 262 263 263 256 249 247 248 251 256 260 263 268 271 273 275 277 280 287 294 299 304 308 312 315 317 321 324 321 312 306 305 304 303 303 303 304 308 310 311 311 311 312 313 315 318 320 322 326 329 330 331 332 334 335 335 333
294 235 206 217 2 283 284 344 328 294 289 295 215 172 227 232 223 219 199 208 241 237 241 245 247 251 252 246 237 233 237 239 239 242 246 249 252 254 257 259 259 259 259 258 258 256 252 252 254 258 264 267 270 273 273 273 275 279 283 288 294 298 302 307 311 313 316 321 320 313 308 305 304 304 304 303 303 307 308 309 310 310 311 313 315 317 319 323 327 329 331 332 334 335 334 333 332
263 277 252 209 239 237 276 303 314 296 279 304 195 210 261 226 237 240 223 233 248 253 252 249 250 251 256 254 245 236 236 239 242 244 248 250 253 256 258 258 258 254 252 254 258 260 256 256 258 262 267 268 270 271 270 271 273 276 279 283 288 292 297 302 306 309 313 316 317 314 310 305 303 302 301 300 301 302 304 305 306 307 309 312 313 316 320 325 328 330 332 333 334 333 332 330 329
207 265 300 289 265 253 271 292 295 281 250 265 282 284 272 227 248 260 248 250 254 260 258 250 248 247 251 252 244 238 238 240 243 246 250 253 256 260 262 261 260 253 248 249 253 256 257 259 261 264 268 269 268 268 268 269 270 272 276 280 284 288 293 298 302 305 309 313 314 315 311 304 299 297 297 296 296 297 300 301 303 305 308 311 314 318 322 325 328 330 331 332 332 331 329 328 328
183 236 294 293 279 255 267 288 274 260 243 253 280 271 256 251 271 279 265 263 262 262 261 257 254 251 252 249 240 234 236 239 241 245 248 252 256 259 261 260 257 250 245 246 250 254 257 260 263 265 267 269 268 267 269 269 269 270 273 278 281 285 290 294 298 301 305 308 310 313 310 302 295 293 294 293 292 295 297 299 302 305 309 311 315 320 322 324 327 329 331 331 330 328 327 328 329
193 242 283 295 287 272 274 271 248 245 247 248 270 266 261 266 286 277 267 271 273 267 262 259 256 253 251 248 242 235 233 235 238 241 245 250 252 253 256 257 254 250 247 246 249 254 257 260 263 266 268 270 268 268 269 270 269 270 272 276 279 282 287 290 293 297 302 304 306 309 307 299 292 290 290 291 291 293 295 297 301 304 309 311 314 319 320 322 325 328 330 329 328 326 327 328 328
285 279 285 283 276 277 269 254 242 245 261 252 245 267 271 270 283 268 272 281 282 268 260 257 254 251 251 249 246 242 239 239 240 241 244 248 249 251 254 255 255 254 250 247 250 254 256 258 263 267 269 270 269 269 270 270 270 271 273 275 277 279 282 285 289 294 297 299 301 304 303 295 287 287 288 289 290 291 293 296 299 303 307 309 312 316 318 321 324 328 328 327 326 325 325 326 323
299 310 308 289 281 278 256 244 246 240 271 258 237 263 273 271 235 245 269 288 279 259 258 258 252 249 249 250 250 247 245 246 246 245 245 246 247 249 252 254 257 257 253 251 253 254 255 258 262 266 268 269 270 271 271 271 272 272 273 274 275 278 280 282 285 290 292 294 297 298 299 292 285 285 285 286 287 289 292 294 297 301 304 306 310 313 316 320 323 326 326 323 322 321 322 320 315
308 328 320 303 324 296 251 238 233 215 237 256 243 286 275 231 225 248 269 289 277 260 255 254 251 250 248 248 249 249 249 250 250 249 250 250 251 251 251 256 259 258 257 256 255 255 256 258 261 264 267 269 271 272 273 273 273 272 272 273 274 275 278 280 283 286 288 288 291 294 294 289 284 283 282 283 285 287 290 291 295 298 301 304 308 312 315 319 321 323 322 319 319 320 318 313 309
306 292 204 305 352 320 260 231 206 200 212 214 112 311 279 231 229 257 284 295 282 263 256 254 250 250 250 250 250 250 251 252 251 252 255 256 256 254 254 258 259 257 257 255 253 255 257 258 261 264 267 271 273 275 275 275 274 273 273 273 273 274 276 279 281 283 283 284 286 288 289 287 283 280 280 280 281 284 286 289 292 294 298 303 307 311 314 316 318 320 319 318 318 318 313 309 306
303 300 246 328 344 297 296 256 171 181 228 194 131 249 272 272 252 269 292 297 287 261 255 258 253 251 251 251 251 251 252 252 254 256 257 260 261 259 259 261 259 256 253 251 253 255 257 259 261 265 269 273 275 276 277 277 276 274 273 273 272 273 274 276 278 279 280 281 282 284 285 284 281 278 276 276 278 281 283 286 289 293 298 302 307 309 310 313 314 317 319 317 316 314 308 306 304
13 4 312 326 329 283 305 301 173 181 247 179 156 244 270 279 277 286 296 298 292 269 265 266 258 253 250 251 253 253 254 254 256 258 258 260 261 262 261 262 262 257 253 251 253 254 255 258 261 265 270 273 276 277 278 277 276 274 273 272 272 272 273 274 276 277 277 277 279 281 282 282 279 276 274 272 275 278 281 285 288 293 297 300 305 305 307 310 312 316 318 316 312 310 305 303 302
1 39 304 301 319 316 316 310 235 206 268 185 201 253 276 279 291 298 299 299 294 281 278 275 265 258 250 251 255 256 256 253 253 255 257 258 259 261 261 263 265 259 256 254 252 253 255 259 263 267 272 275 278 278 278 278 276 275 273 271 270 270 271 273 274 273 272 272 274 277 280 280 279 276 272 270 273 276 280 285 288 291 295 298 301 303 306 309 312 315 315 314 310 306 303 301 304
330 14 338 287 296 320 316 311 304 251 255 254 238 249 265 275 293 297 297 301 293 277 275 275 270 264 256 253 255 256 256 256 255 255 254 256 258 261 261 261 259 255 253 251 253 257 261 266 269 272 276 278 279 279 279 279 277 275 273 271 269 268 269 269 269 268 268 269 271 274 277 278 279 276 271 269 272 275 278 283 286 288 292 295 299 302 306 308 310 312 312 312 308 303 302 303 307
290 315 322 308 311 308 291 292 305 328 280 277 273 269 271 279 290 294 299 305 296 278 274 273 271 268 263 257 256 258 258 258 261 261 257 259 264 265 261 256 251 246 244 247 256 262 266 270 273 274 277 279 280 281 279 278 276 275 273 270 267 266 266 265 264 265 267 267 269 272 274 277 280 277 270 270 272 273 277 280 283 286 289 293 297 301 304 307 309 310 310 308 305 304 304 306 307
251 268 276 291 301 292 277 273 276 285 307 276 267 274 284 295 297 297 302 307 301 287 281 276 274 275 271 266 265 263 258 260 266 266 261 262 267 264 254 246 242 237 240 257 270 272 273 275 276 277 279 280 280 278 278 276 274 273 271 269 267 266 265 263 263 264 264 264 266 269 272 277 280 276 270 270 271 272 274 277 280 283 287 291 295 300 303 306 308 308 307 305 305 307 306 307 306
253 291 308 289 291 291 282 278 290 357 320 262 254 281 295 300 299 298 303 307 303 289 283 283 285 289 294 294 291 272 256 271 286 278 271 268 265 254 242 234 230 234 255 279 285 286 287 283 280 282 282 280 279 279 280 278 276 273 271 269 269 267 264 263 261 259 259 260 262 264 268 274 276 273 269 269 270 270 271 274 278 281 284 288 293 298 303 306 306 306 304 304 305 305 307 308 305
311 322 321 312 293 278 282 279 313 17 357 292 284 303 305 298 297 300 305 307 304 298 289 288 298 321 351 4 359 324 299 27 40 43 30 5 324 287 265 253 253 275 288 292 294 297 295 288 286 287 284 282 283 283 281 279 280 277 274 273 270 268 265 264 262 259 259 258 257 259 265 271 273 271 267 267 267 267 269 271 274 278 281 285 291 297 302 304 304 303 301 302 302 301 304 307 306
347 332 328 320 298 284 292 290 2 17 357 304 307 318 302 290 292 295 304 305 306 322 323 298 320 6 13 25 41 52 64 62 61 59 56 53 43 32 342 314 303 297 296 298 300 299 296 293 293 291 288 287 285 283 281 280 280 277 275 273 269 266 264 263 262 259 256 253 252 255 260 265 269 270 267 266 266 266 267 268 271 275 277 282 289 296 301 302 302 301 299 299 298 298 302 305 305
347 332 326 305 315 337 310 323 1 340 274 280 307 315 292 290 302 298 319 343 353 7 16 10 16 28 33 50 60 64 66 60 56 49 40 35 24 11 341 330 317 301 296 298 300 300 299 299 300 298 294 291 286 282 280 279 276 273 271 269 266 264 261 259 257 253 249 247 248 252 255 260 264 267 265 263 263 263 264 266 268 271 275 281 288 295 300 301 300 298 297 296 296 295 298 302 303
321 292 277 281 305 309 277 306 334 316 286 316 339 333 299 307 334 317 338 5 14 21 22 27 45 54 58 64 61 54 50 43 39 31 22 18 12 4 349 334 324 313 303 300 303 305 304 305 304 302 298 293 287 283 279 275 272 270 267 262 258 255 252 249 247 246 243 242 247 253 254 256 259 261 260 258 258 260 261 262 265 268 272 278 286 293 298 299 298 296 295 294 294 294 294 298 301
325 286 236 253 297 298 293 325 341 338 334 359 34 6 294 304 333 312 333 3 359 15 27 37 56 65 65 60 49 38 34 27 23 20 18 15 9 4 354 337 329 325 318 315 315 310 308 307 304 300 296 292 288 283 278 274 271 270 267 262 257 253 251 251 252 251 248 248 255 257 255 254 256 258 256 253 252 255 258 259 261 265 270 276 283 291 295 296 296 294 293 293 293 292 290 292 295
327 279 244 295 314 311 315 348 357 344 299 300 61 105 269 313 323 300 336 4 340 4 29 38 56 65 61 56 46 31 23 19 18 19 19 16 11 6 358 348 341 336 329 324 320 316 313 311 305 300 294 290 287 283 278 275 272 271 270 267 263 259 257 259 260 257 254 255 258 256 254 254 256 258 255 251 249 253 256 257 259 263 268 274 280 288 293 295 294 292 291 291 290 288 286 287 288
296 264 352 329 318 310 317 354 323 243 284 302 357 136 239 308 289 285 335 17 341 348 356 356 66 81 64 56 41 24 21 21 22 24 23 20 14 9 1 350 344 341 333 323 322 323 322 319 314 305 295 289 287 284 279 277 276 275 272 269 264 261 259 260 259 257 255 254 253 252 253 253 254 255 254 251 250 252 256 257 259 262 266 271 277 285 291 293 292 291 289 288 286 283 281 281 279
271 271 326 311 297 291 293 300 243 261 5 319 318 80 291 286 279 297 356 30 336 317 298 284 243 123 77 58 35 30 35 36 38 34 28 23 11 1 350 338 335 336 332 324 323 323 322 322 320 310 300 293 290 286 280 279 280 278 273 269 265 262 259 257 255 253 252 251 250 250 251 251 253 253 252 251 251 252 256 257 258 261 265 269 275 283 289 290 291 288 286 285 283 279 276 275 272
278 299 319 300 300 299 257 156 184 13 38 278 283 5 41 298 290 305 0 30 300 281 277 277 270 296 38 29 16 19 31 43 52 40 27 13 356 347 339 332 331 333 332 328 325 322 322 324 323 317 309 300 293 287 282 279 281 280 275 271 268 263 259 255 252 249 247 247 246 246 249 251 252 252 252 252 251 251 253 255 256 259 263 266 272 281 286 289 288 285 283 280 277 274 270 270 270
309 343 342 322 343 20 40 69 80 45 352 255 256 209 97 310 290 279 286 252 236 244 273 290 296 316 349 3 354 351 16 43 48 28 7 353 349 345 337 335 336 334 332 332 332 330 330 331 329 324 317 308 298 291 285 281 281 281 280 276 271 266 261 255 251 248 245 244 243 244 248 250 252 253 253 253 251 250 250 252 255 257 260 264 270 279 284 287 286 283 281 277 272 270 267 266 265
7 13 6 347 344 7 14 1 39 41 304 260 264 321 34 243 268 269 270 271 242 221 235 260 272 286 308 330 330 326 70 64 21 0 352 352 352 347 342 341 339 334 332 333 334 334 333 334 332 328 321 312 304 298 292 286 283 283 283 279 272 268 264 257 254 251 248 245 244 245 246 248 250 251 252 253 251 249 249 251 253 255 258 262 269 277 282 284 283 280 277 275 272 269 267 265 261
19 15 29 25 356 356 357 338 0 358 278 266 281 340 302 240 251 270 277 275 248 230 222 212 238 260 284 315 320 302 154 1 350 347 348 353 353 348 345 341 336 333 331 330 330 332 332 331 332 330 325 316 306 300 296 290 287 286 285 281 276 270 264 260 257 255 252 249 247 247 247 249 249 252 255 256 254 252 251 252 254 255 258 261 267 275 281 282 280 279 276 274 271 268 265 263 259
352 0 50 67 50 1 327 303 326 309 282 287 297 297 273 282 270 261 277 280 240 230 226 205 244 266 283 317 310 249 217 307 332 339 342 347 349 346 342 337 335 333 329 326 327 330 331 330 333 333 329 322 310 303 300 296 294 291 287 283 277 271 266 262 259 256 253 250 249 248 250 252 253 257 261 260 257 253 251 251 252 254 256 260 265 273 278 279 278 277 274 271 268 264 261 260 258
291 217 133 119 129 122 268 255 283 289 285 298 312 300 228 279 287 261 288 304 255 222 225 219 250 260 262 299 288 235 237 294 314 328 336 342 344 339 335 335 335 331 326 327 329 330 333 338 339 334 330 326 318 311 307 303 300 295 288 283 278 273 269 264 259 256 253 250 249 248 250 252 254 259 264 260 255 251 248 248 249 251 254 258 264 271 275 277 276 273 271 268 263 260 258 257 256
269 179 89 77 176 169 217 230 231 263 287 290 304 278 230 252 287 277 295 322 299 245 263 259 270 287 290 294 283 236 245 285 303 319 332 339 340 333 335 338 334 328 326 329 332 334 339 345 341 334 330 327 324 319 314 310 306 297 289 284 280 275 270 264 259 257 253 251 250 248 249 252 254 259 262 256 251 249 248 247 248 250 254 257 262 269 274 274 273 271 268 265 261 257 256 255 253
322 13 321 247 192 156 187 269 262 302 292 280 284 282 288 334 303 295 321 333 321 306 300 283 294 313 311 302 286 241 256 282 295 315 330 337 338 334 338 340 333 329 330 332 334 338 345 347 342 335 330 328 326 323 320 318 312 301 291 286 282 278 273 268 264 261 257 253 250 248 248 250 252 258 259 253 249 249 248 247 247 250 253 256 260 266 271 271 270 269 267 264 261 255 253 254 252
70 309 260 266 89 123 133 279 326 345 278 279 294 282 289 337 296 305 331 322 310 310 308 299 308 318 314 309 291 252 263 284 295 312 327 331 335 336 335 337 336 335 333 332 334 343 352 350 344 339 334 331 327 323 321 321 318 308 297 290 284 281 277 272 269 266 261 256 252 249 247 248 252 258 257 251 249 248 246 245 245 249 251 253 257 263 267 268 268 268 267 263 259 253 252 253 251
178 258 266 5 352 306 341 140 288 311 284 289 293 284 282 226 243 288 305 303 307 307 306 307 313 315 312 314 308 283 274 284 297 307 317 326 331 332 330 331 335 335 332 331 335 345 353 351 346 342 339 338 333 326 322 322 322 316 304 295 288 284 279 274 271 268 263 258 254 251 248 248 252 257 257 253 251 248 246 244 245 247 249 250 254 260 265 267 268 267 266 262 258 252 251 253 252
348 336 319 357 193 216 245 217 190 234 269 283 290 293 288 216 209 254 281 296 307 305 305 310 313 317 316 317 315 303 285 283 297 302 310 324 325 321 331 335 337 337 335 335 338 342 347 348 347 344 341 343 342 335 327 324 325 323 312 301 292 285 281 276 273 269 265 261 257 253 250 249 251 254 256 254 252 250 247 246 245 247 248 249 253 259 263 266 267 267 265 261 257 253 253 255 254
329 332 307 295 279 246 273 263 178 185 226 254 286 291 282 253 214 310 303 303 305 307 318 322 322 325 322 318 315 308 296 288 290 299 313 324 321 317 334 340 342 342 338 336 336 337 339 342 345 345 343 343 344 342 337 331 330 327 319 308 297 289 284 279 275 271 267 262 258 254 251 250 251 252 254 252 250 248 246 245 245 246 248 249 252 258 262 264 265 266 265 260 256 253 253 257 255
199 231 253 253 263 308 311 289 264 188 195 213 261 279 277 282 327 305 298 308 326 338 341 333 325 321 317 314 310 306 301 292 289 319 330 323 312 322 335 338 340 340 335 332 329 330 333 337 342 344 343 343 343 344 343 338 333 330 325 315 304 294 286 281 276 272 268 264 259 256 253 251 251 251 252 251 248 247 245 243 243 245 247 248 252 257 260 263 265 266 265 261 257 255 254 256 255